Radiation Dose measured at exhaust stack monitor of Fukushima Daiichi Nuclear Power Station
Date,Time,Unit 5 6 shared exhaust cylinders,Wind Direction,Wind Velocity(m/s)
2021/06/09,00:00,3.8,west,4.2
2021/06/09,00:10,3.9,west,4.6
2021/06/09,00:20,3.9,west-northwest,4.4
2021/06/09,00:30,3.9,west-northwest,3.5
2021/06/09,00:40,3.7,west-northwest,4.0
2021/06/09,00:50,3.8,west-northwest,4.7
2021/06/09,01:00,3.8,west-northwest,5.4
2021/06/09,01:10,3.8,west-northwest,5.2
2021/06/09,01:20,3.8,west-northwest,6.8
2021/06/09,01:30,3.8,west-northwest,5.4
2021/06/09,01:40,4.0,west-northwest,4.8
2021/06/09,01:50,3.8,west-northwest,5.3
2021/06/09,02:00,3.7,northwest,4.4
2021/06/09,02:10,3.8,northwest,4.6
2021/06/09,02:20,3.8,west-northwest,5.4
2021/06/09,02:30,4.0,northwest,5.8
2021/06/09,02:40,3.9,west-northwest,5.3
2021/06/09,02:50,4.0,west-northwest,4.7
2021/06/09,03:00,3.8,west-northwest,4.4
2021/06/09,03:10,4.0,west-northwest,4.4
2021/06/09,03:20,3.9,northwest,3.8
2021/06/09,03:30,3.8,northwest,3.9
2021/06/09,03:40,3.8,west-northwest,4.3
2021/06/09,03:50,3.9,northwest,5.0
2021/06/09,04:00,3.8,northwest,4.7
2021/06/09,04:10,4.0,west-northwest,5.3
2021/06/09,04:20,3.8,west-northwest,5.6
2021/06/09,04:30,4.0,west-northwest,5.3
2021/06/09,04:40,4.0,west-northwest,5.9
2021/06/09,04:50,4.0,west-northwest,4.7
2021/06/09,05:00,3.9,west-northwest,4.8
2021/06/09,05:10,3.7,northwest,5.1
2021/06/09,05:20,3.9,northwest,5.7
2021/06/09,05:30,4.1,northwest,4.8
2021/06/09,05:40,3.7,northwest,4.8
2021/06/09,05:50,3.7,northwest,4.3
2021/06/09,06:00,3.9,northwest,3.8
2021/06/09,06:10,4.0,northwest,4.1
2021/06/09,06:20,4.0,northwest,3.7
2021/06/09,06:30,4.1,west-northwest,2.0
2021/06/09,06:40,3.8,west-northwest,2.5
2021/06/09,06:50,3.7,north-northwest,2.3
2021/06/09,07:00,3.8,north-northeast,1.7
2021/06/09,07:10,3.9,north-northeast,1.7
2021/06/09,07:20,3.7,north-northeast,2.3
2021/06/09,07:30,4.0,north,2.3
2021/06/09,07:40,3.9,north-northeast,2.6
2021/06/09,07:50,3.9,north-northeast,3.4
2021/06/09,08:00,3.6,north-northeast,3.6
2021/06/09,08:10,4.0,north-northeast,4.1
2021/06/09,08:20,3.9,north-northeast,4.5
2021/06/09,08:30,3.7,north-northeast,4.8
2021/06/09,08:40,4.0,north-northeast,4.4
2021/06/09,08:50,3.8,north-northeast,5.2
2021/06/09,09:00,3.9,north,3.7
2021/06/09,09:10,4.0,north-northeast,2.2
2021/06/09,09:20,4.0,north,2.9
2021/06/09,09:30,3.7,north-northeast,4.2
2021/06/09,09:40,3.7,north-northeast,5.3
2021/06/09,09:50,3.9,north-northeast,5.4
2021/06/09,10:00,4.1,northeast,5.1
2021/06/09,10:10,4.0,northeast,4.4
2021/06/09,10:20,4.0,northeast,4.5
2021/06/09,10:30,3.8,north-northeast,3.2
2021/06/09,10:40,3.9,north-northeast,2.5
2021/06/09,10:50,3.9,north-northeast,2.0
2021/06/09,11:00,3.9,north-northeast,2.2
2021/06/09,11:10,3.8,north,2.0
2021/06/09,11:20,3.9,east-northeast,2.3
2021/06/09,11:30,3.9,north-northeast,1.7
2021/06/09,11:40,3.9,north-northeast,3.5
2021/06/09,11:50,4.0,north-northeast,2.6
2021/06/09,12:00,3.8,east-northeast,3.2
2021/06/09,12:10,3.9,east-northeast,3.9
2021/06/09,12:20,3.8,east,3.8
2021/06/09,12:30,3.8,east,3.1
2021/06/09,12:40,3.7,east-southeast,4.2
2021/06/09,12:50,3.8,east,3.4
2021/06/09,13:00,3.9,east,4.3
2021/06/09,13:10,3.8,east-southeast,3.0
2021/06/09,13:20,3.8,east,3.0
2021/06/09,13:30,3.8,southeast,2.0
2021/06/09,13:40,3.9,east,2.8
2021/06/09,13:50,3.9,southeast,2.3
2021/06/09,14:00,3.9,southeast,3.8
2021/06/09,14:10,3.8,east-southeast,2.9
2021/06/09,14:20,4.0,southeast,3.4
2021/06/09,14:30,3.9,southeast,2.8
2021/06/09,14:40,3.9,south-southeast,3.4
2021/06/09,14:50,4.0,south-southeast,3.2
2021/06/09,15:00,4.2,south-southeast,3.2
2021/06/09,15:10,3.8,south-southeast,3.7
2021/06/09,15:20,3.9,southeast,3.7
2021/06/09,15:30,4.0,southeast,4.2
2021/06/09,15:40,3.9,southeast,4.1
2021/06/09,15:50,3.9,south-southeast,5.7
2021/06/09,16:00,3.9,south-southeast,5.0
2021/06/09,16:10,3.8,south-southeast,4.9
2021/06/09,16:20,4.0,south-southeast,4.8
2021/06/09,16:30,3.8,south-southeast,5.0
2021/06/09,16:40,4.0,southeast,3.9
2021/06/09,16:50,4.0,southeast,2.8
2021/06/09,17:00,4.0,south-southeast,2.9
2021/06/09,17:10,3.8,east-southeast,2.2
2021/06/09,17:20,3.9,east,2.6
2021/06/09,17:30,4.1,east-northeast,3.1
2021/06/09,17:40,4.0,east-northeast,3.1
2021/06/09,17:50,3.9,northeast,2.6
2021/06/09,18:00,3.8,east-northeast,2.3
2021/06/09,18:10,4.1,northeast,2.6
2021/06/09,18:20,3.9,northeast,2.3
2021/06/09,18:30,3.9,northeast,2.0
2021/06/09,18:40,3.7,north-northeast,2.3
2021/06/09,18:50,4.0,east-northeast,2.2
2021/06/09,19:00,3.9,east-northeast,1.7
2021/06/09,19:10,4.0,east-northeast,1.2
2021/06/09,19:20,4.1,northeast,1.9
2021/06/09,19:30,3.7,east-northeast,1.9
2021/06/09,19:40,3.9,east-northeast,1.7
2021/06/09,19:50,3.8,east-northeast,2.0
2021/06/09,20:00,4.1,east-northeast,1.4
2021/06/09,20:10,3.8,east,1.7
2021/06/09,20:20,3.9,east-southeast,2.0
2021/06/09,20:30,3.8,southeast,2.2
2021/06/09,20:40,3.8,east-southeast,2.5
2021/06/09,20:50,3.9,southeast,3.1
2021/06/09,21:00,4.0,southeast,2.6
2021/06/09,21:10,3.9,southeast,2.3
2021/06/09,21:20,3.7,east-southeast,1.7
2021/06/09,21:30,3.8,southeast,1.9
2021/06/09,21:40,3.7,east-southeast,2.0
2021/06/09,21:50,3.9,east-southeast,1.5
2021/06/09,22:00,3.9,east-northeast,1.7
2021/06/09,22:10,4.0,northeast,1.4
2021/06/09,22:20,3.8,east,1.4
2021/06/09,22:30,4.0,east-southeast,1.7
2021/06/09,22:40,3.9,east,1.5
2021/06/09,22:50,3.8,northeast,1.4
2021/06/09,23:00,3.8,north-northeast,1.1
2021/06/09,23:10,3.9,northeast,0.9
2021/06/09,23:20,4.1,north-northeast,1.4
2021/06/09,23:30,3.9,north-northeast,1.7
2021/06/09,23:40,3.9,northeast,1.5
2021/06/09,23:50,3.8,north-northeast,1.5
